User: anonymous   Login
Location: Unspecified
(0.0000°N, 0.0000°E)
Time: 09:21:47
(UTC+02:00)
Language:

CZ-2C R/B - Orbit

View from above orbital plane
View from above orbital plane
View from above satellite
View from above satellite

Ground track
Ground track

The orbit data is extracted from the following two-line orbital elements,

1 28480U 04046B   16126.32314588  .00000028  00000-0  26410-4 0  9993
2 28480  98.1767 243.0694 0141782 348.8315  66.0040 14.25587644596120
Epoch (UTC): 05 May 2016 07:45:19
Eccentricity: 0.0141782
inclination: 98.1767°
perigee height: 704 km
apogee height: 908 km
right ascension of ascending node: 243.0694°
argument of perigee: 348.8315°
revolutions per day: 14.25587644
mean anomaly at epoch: 66.0040°
orbit number at epoch: 59612

The dashed part of the orbit path shows where the satellite is in the earth's shadow,  

DLR